Phuket, Thailand

5:45 PM +07 on December 11, 2017 (GMT +0700)
Phuket International

Weather History for VTSP - August, 2014

Change the Weather History Date:

Friday, August 1, 2014

  Actual Average Record
Temperature  
Mean Temperature 85 °F -  
Max Temperature 89 °F 87 °F 93 °F (1996)
Min Temperature 81 °F 78 °F 71 °F (2013)
Cooling Degree Days 20    
Growing Degree Days 35 (Base 50)    
Moisture  
Dew Point 74 °F    
Average Humidity 68    
Maximum Humidity 75    
Minimum Humidity 53    
Precipitation  
Precipitation 0.00 in 0.36 in - ()
Sea Level Pressure  
Sea Level Pressure 29.81 in    
Wind  
Wind Speed 12 mph ()    
Max Wind Speed 21 mph    
Max Gust Speed -    
Visibility 5.9 miles    
Events      
Averages and records for this station are not official NWS values.
T = Trace of Precipitation, MM = Missing Value Source: Averaged Metar Reports

Daily Weather History Graph

Daily Weather History Graph

Search for Another Location

Airport or City:

Trip Planner

Search our weather history database for the weather conditions in past years. The results will help you decide how hot, cold, wet, or windy it might be!

Date:

Astronomy

Aug. 01, 2014 Rise Set
Actual Time 6:18 AM +07 6:47 PM +07
Civil Twilight 5:56 AM +07 7:09 PM +07
Nautical Twilight 5:31 AM +07 7:34 PM +07
Astronomical Twilight 5:05 AM +07 8:00 PM +07
Moon 10:08 AM +07 (8/1) 10:24 PM +07 (8/1)
Length of Visible Light 13h 12m
Length of Day
12h 28m
Waxing Crescent, 23% of the Moon is Illuminated
Aug 1
Waxing Crescent
Aug 4
First Quarter
Aug 11
Full
Aug 17
Last Quarter
Aug 25
New

Hourly Weather History & Observations

Time (+07) Temp. Heat Index Dew Point Humidity Pressure Visibility Wind Dir Wind Speed Gust Speed Precip Events Conditions
12:30 AM 84.2 °F 90.9 °F 73.4 °F 70% 29.83 in 5.0 mi West 12.7 mph - N/A   Mostly Cloudy
1:00 AM 85 °F - 77 °F 72% 29.81 in 6 mi West 5.8 mph - -   Mist
1:00 AM 84.2 °F 90.9 °F 73.4 °F 70% 29.83 in 5.0 mi West 11.5 mph - N/A   Mostly Cloudy
2:00 AM 82.4 °F 88.2 °F 73.4 °F 74% 29.80 in 5.0 mi West 16.1 mph - N/A   Mostly Cloudy
4:00 AM 83 °F - 75 °F 72% 29.79 in 6 mi WSW 4.6 mph - -   Mist
4:30 AM 82.4 °F 88.2 °F 73.4 °F 74% 29.80 in 5.0 mi West 11.5 mph - N/A   Mostly Cloudy
5:00 AM 82.4 °F 88.2 °F 73.4 °F 74% 29.80 in 5.0 mi West 13.8 mph - N/A   Mostly Cloudy
6:00 AM 82.4 °F 88.2 °F 73.4 °F 74% 29.80 in 5.0 mi West 10.4 mph - N/A   Mostly Cloudy
6:30 AM 82.4 °F 88.2 °F 73.4 °F 74% 29.80 in 4.3 mi West 12.7 mph - N/A   Mostly Cloudy
7:00 AM 83 °F - 75 °F 70% 29.78 in 5 mi West 5.8 mph - -   Mist
7:00 AM 82.4 °F 88.2 °F 73.4 °F 74% 29.83 in - North - - N/A   Mostly Cloudy
7:30 AM 82.4 °F 88.2 °F 73.4 °F 74% 29.83 in 4.3 mi WSW 10.4 mph - N/A   Mostly Cloudy
8:30 AM 86.0 °F 93.4 °F 73.4 °F 66% 29.86 in 5.0 mi WSW 13.8 mph - N/A   Mostly Cloudy
9:30 AM 86.0 °F 93.4 °F 73.4 °F 66% 29.86 in 5.6 mi West 19.6 mph - N/A   Mostly Cloudy
10:00 AM 86 °F - 77 °F 68% 29.83 in 6 mi WSW 6.9 mph - -   Scattered Clouds
10:30 AM 87.8 °F 95.6 °F 73.4 °F 62% 29.86 in 6.2 mi WSW 13.8 mph - N/A   Mostly Cloudy
11:00 AM 87.8 °F 95.6 °F 73.4 °F 62% 29.86 in 6.2 mi WSW 17.3 mph - N/A   Mostly Cloudy
11:30 AM 86.0 °F 93.4 °F 73.4 °F 66% 29.83 in 6.2 mi WSW 17.3 mph - N/A   Mostly Cloudy
12:00 PM 87.8 °F 95.6 °F 73.4 °F 62% 29.83 in 6.2 mi WSW 17.3 mph - N/A   Mostly Cloudy
12:30 PM 87.8 °F 95.6 °F 73.4 °F 62% 29.83 in 6.2 mi West 17.3 mph - N/A   Mostly Cloudy
1:00 PM 87 °F - 76 °F 62% 29.80 in 6 mi WSW 9.2 mph - -   Scattered Clouds
1:00 PM 87.8 °F 95.6 °F 73.4 °F 62% 29.83 in 6.2 mi WSW 17.3 mph - N/A   Mostly Cloudy
1:30 PM 87.8 °F 95.6 °F 73.4 °F 62% 29.80 in 6.2 mi West 17.3 mph - N/A   Mostly Cloudy
2:00 PM 87.8 °F 95.6 °F 73.4 °F 62% 29.80 in 6.2 mi West 16.1 mph - N/A   Mostly Cloudy
2:30 PM 87.8 °F 95.6 °F 73.4 °F 62% 29.80 in 6.2 mi West 16.1 mph - N/A   Mostly Cloudy
3:00 PM 87.8 °F 95.6 °F 73.4 °F 62% 29.80 in 6.2 mi West 20.7 mph - N/A   Mostly Cloudy
3:30 PM 87.8 °F 95.6 °F 73.4 °F 62% 29.77 in 6.2 mi West 18.4 mph - N/A   Mostly Cloudy
4:00 PM 86 °F - 71 °F 53% 29.77 in 6 mi SW 5.8 mph - -   Scattered Clouds
4:00 PM 87.8 °F 95.6 °F 73.4 °F 62% 29.77 in 6.2 mi West 18.4 mph - N/A   Mostly Cloudy
4:30 PM 87.8 °F 95.6 °F 73.4 °F 62% 29.77 in 6.2 mi West 17.3 mph - N/A   Mostly Cloudy
5:00 PM 86.0 °F 93.4 °F 73.4 °F 66% 29.77 in 6.2 mi West 17.3 mph - N/A   Mostly Cloudy
5:30 PM 86.0 °F 93.4 °F 73.4 °F 66% 29.77 in 6.2 mi West 17.3 mph - N/A   Mostly Cloudy
6:00 PM 84.2 °F 89.6 °F 71.6 °F 66% 29.77 in 6.2 mi West 17.3 mph - N/A   Mostly Cloudy
6:30 PM 84.2 °F 90.9 °F 73.4 °F 70% 29.77 in 6.2 mi West 15.0 mph - N/A   Mostly Cloudy
7:00 PM 85 °F - 78 °F 75% 29.75 in 6 mi West 5.8 mph - -   Scattered Clouds
7:00 PM 84.2 °F 90.9 °F 73.4 °F 70% 29.80 in 6.2 mi West 15.0 mph - N/A   Mostly Cloudy
7:30 PM 84.2 °F 90.9 °F 73.4 °F 70% 29.80 in 6.2 mi West 17.3 mph - N/A   Mostly Cloudy
8:00 PM 84.2 °F 90.9 °F 73.4 °F 70% 29.80 in 6.2 mi West 17.3 mph - N/A   Mostly Cloudy
8:30 PM 84.2 °F 90.9 °F 73.4 °F 70% 29.80 in 6.2 mi West 15.0 mph - N/A   Mostly Cloudy
9:00 PM 84.2 °F 90.9 °F 73.4 °F 70% 29.83 in 6.2 mi West 12.7 mph - N/A   Mostly Cloudy
9:30 PM 84.2 °F 92.3 °F 75.2 °F 74% 29.83 in 6.2 mi West 12.7 mph - N/A   Mostly Cloudy
10:00 PM 85 °F - 77 °F 71% 29.79 in 6 mi NNW 11.5 mph - -   Scattered Clouds
10:00 PM 84.2 °F 90.9 °F 73.4 °F 70% 29.83 in 6.2 mi West 12.7 mph - N/A   Mostly Cloudy
10:30 PM 84.2 °F 90.9 °F 73.4 °F 70% 29.83 in 6.2 mi West 10.4 mph - N/A   Mostly Cloudy
11:00 PM 84.2 °F 90.9 °F 73.4 °F 70% 29.86 in 6.2 mi West 12.7 mph - N/A   Mostly Cloudy
11:30 PM 84.2 °F 90.9 °F 73.4 °F 70% 29.86 in 6.2 mi West 11.5 mph - N/A   Mostly Cloudy